owner,sensor,date,latitude,longitude,vertical_datum,wind_speed,wind_to_direction,wind_speed_of_gust,qcFlag 
ADCP,ioos:station:wmo:42887:1,2011-01-01T00:00:00Z,28.1910,-88.4960,48.2,14.4,168.0,99.0,'11111222,11111222,11144222' 
ADCP,ioos:station:wmo:42887:1,2011-01-01T00:20:00Z,28.1910,-88.4960,48.2,12.1,163.0,99.0,'11111222,11111222,11144222' 
ADCP,ioos:station:wmo:42887:1,2011-01-01T00:40:00Z,28.1910,-88.4960,48.2,12.8,165.0,99.0,'11111222,11111222,11144222' 
ADCP,ioos:station:wmo:42887:1,2011-01-01T01:00:00Z,28.1910,-88.4960,48.2,14.2,171.0,99.0,'11111222,11111222,11144222' 
ADCP,ioos:station:wmo:42887:1,2011-01-01T01:20:00Z,28.1910,-88.4960,48.2,12.5,170.0,99.0,'11111222,11111222,11144222' 
ADCP,ioos:station:wmo:42887:1,2011-01-01T01:40:00Z,28.1910,-88.4960,48.2,12.6,169.0,99.0,'11111222,11111222,11144222' 
ADCP,ioos:station:wmo:42887:1,2011-01-01T02:00:00Z,28.1910,-88.4960,48.2,12.9,171.0,99.0,'11111222,11111222,11144222' 
ADCP,ioos:station:wmo:42887:1,2011-01-01T02:20:00Z,28.1910,-88.4960,48.2,13.0,170.0,99.0,'11111222,11111222,11144222' 
ADCP,ioos:station:wmo:42887:1,2011-01-01T02:40:00Z,28.1910,-88.4960,48.2,14.9,173.0,99.0,'11111222,11111222,11144222' 
ADCP,ioos:station:wmo:42887:1,2011-01-01T03:00:00Z,28.1910,-88.4960,48.2,14.2,173.0,99.0,'11111222,11111222,11144222' 
ADCP,ioos:station:wmo:42887:1,2011-01-01T03:20:00Z,28.1910,-88.4960,48.2,13.6,174.0,99.0,'11111222,11111222,11144222' 
ADCP,ioos:station:wmo:42887:1,2011-01-01T03:40:00Z,28.1910,-88.4960,48.2,14.1,173.0,99.0,'11111222,11111222,11144222' 
ADCP,ioos:station:wmo:42887:1,2011-01-01T04:00:00Z,28.1910,-88.4960,48.2,14.4,173.0,99.0,'11111222,11111222,11144222' 
ADCP,ioos:station:wmo:42887:1,2011-01-01T04:20:00Z,28.1910,-88.4960,48.2,13.4,172.0,99.0,'11111222,11111222,11144222' 
ADCP,ioos:station:wmo:42887:1,2011-01-01T04:40:00Z,28.1910,-88.4960,48.2,15.2,171.0,99.0,'11111222,11111222,11144222' 
ADCP,ioos:station:wmo:42887:1,2011-01-01T05:00:00Z,28.1910,-88.4960,48.2,14.5,172.0,99.0,'11111222,11111222,11144222' 
ADCP,ioos:station:wmo:42887:1,2011-01-01T05:20:00Z,28.1910,-88.4960,48.2,13.5,172.0,99.0,'11111222,11111222,11144222' 
ADCP,ioos:station:wmo:42887:1,2011-01-01T05:40:00Z,28.1910,-88.4960,48.2,14.6,174.0,99.0,'11111222,11111222,11144222' 
ADCP,ioos:station:wmo:42887:1,2011-01-01T06:00:00Z,28.1910,-88.4960,48.2,13.7,177.0,99.0,'11111222,11111222,11144222' 
ADCP,ioos:station:wmo:42887:1,2011-01-01T06:20:00Z,28.1910,-88.4960,48.2,13.7,176.0,99.0,'11111222,11111222,11144222' 
ADCP,ioos:station:wmo:42887:1,2011-01-01T06:40:00Z,28.1910,-88.4960,48.2,14.5,178.0,99.0,'11111222,11111222,11144222' 
ADCP,ioos:station:wmo:42887:1,2011-01-01T07:00:00Z,28.1910,-88.4960,48.2,14.1,177.0,99.0,'11111222,11111222,11144222' 
ADCP,ioos:station:wmo:42887:1,2011-01-01T07:20:00Z,28.1910,-88.4960,48.2,13.6,176.0,99.0,'11111222,11111222,11144222' 
ADCP,ioos:station:wmo:42887:1,2011-01-01T07:40:00Z,28.1910,-88.4960,48.2,14.0,175.0,99.0,'11111222,11111222,11144222' 
ADCP,ioos:station:wmo:42887:1,2011-01-01T08:00:00Z,28.1910,-88.4960,48.2,12.5,176.0,99.0,'11111222,11111222,11144222' 
ADCP,ioos:station:wmo:42887:1,2011-01-01T08:20:00Z,28.1910,-88.4960,48.2,14.5,180.0,99.0,'11111222,11111222,11144222' 
ADCP,ioos:station:wmo:42887:1,2011-01-01T08:40:00Z,28.1910,-88.4960,48.2,14.2,178.0,99.0,'11111222,11111222,11144222' 
ADCP,ioos:station:wmo:42887:1,2011-01-01T09:00:00Z,28.1910,-88.4960,48.2,12.4,177.0,99.0,'11111222,11111222,11144222' 
ADCP,ioos:station:wmo:42887:1,2011-01-01T09:20:00Z,28.1910,-88.4960,48.2,11.8,179.0,99.0,'11111222,11111222,11144222' 
ADCP,ioos:station:wmo:42887:1,2011-01-01T09:40:00Z,28.1910,-88.4960,48.2,13.0,176.0,99.0,'11111222,11111222,11144222' 
ADCP,ioos:station:wmo:42887:1,2011-01-01T10:00:00Z,28.1910,-88.4960,48.2,12.2,180.0,99.0,'11111222,11111222,11144222' 
ADCP,ioos:station:wmo:42887:1,2011-01-01T10:20:00Z,28.1910,-88.4960,48.2,12.4,179.0,99.0,'11111222,11111222,11144222' 
ADCP,ioos:station:wmo:42887:1,2011-01-01T10:40:00Z,28.1910,-88.4960,48.2,9.2,175.0,99.0,'11111222,11111222,11144222' 
ADCP,ioos:station:wmo:42887:1,2011-01-01T11:00:00Z,28.1910,-88.4960,48.2,10.3,177.0,99.0,'11111222,11111222,11144222' 
ADCP,ioos:station:wmo:42887:1,2011-01-01T11:20:00Z,28.1910,-88.4960,48.2,10.6,181.0,99.0,'11111222,11111222,11144222' 
ADCP,ioos:station:wmo:42887:1,2011-01-01T11:40:00Z,28.1910,-88.4960,48.2,9.1,186.0,99.0,'11111222,11111222,11144222' 
ADCP,ioos:station:wmo:42887:1,2011-01-01T12:00:00Z,28.1910,-88.4960,48.2,10.8,182.0,99.0,'11111222,11111222,11144222' 
ADCP,ioos:station:wmo:42887:1,2011-01-01T12:20:00Z,28.1910,-88.4960,48.2,9.5,179.0,99.0,'11111222,11111222,11144222' 
ADCP,ioos:station:wmo:42887:1,2011-01-01T12:40:00Z,28.1910,-88.4960,48.2,9.9,179.0,99.0,'11111222,11111222,11144222' 
ADCP,ioos:station:wmo:42887:1,2011-01-01T13:00:00Z,28.1910,-88.4960,48.2,8.7,177.0,99.0,'11111222,11111222,11144222' 
ADCP,ioos:station:wmo:42887:1,2011-01-01T13:20:00Z,28.1910,-88.4960,48.2,8.5,186.0,99.0,'11111222,11111222,11144222' 
ADCP,ioos:station:wmo:42887:1,2011-01-01T13:40:00Z,28.1910,-88.4960,48.2,9.7,185.0,99.0,'11111222,11111222,11144222' 
ADCP,ioos:station:wmo:42887:1,2011-01-01T14:00:00Z,28.1910,-88.4960,48.2,8.4,190.0,99.0,'11111222,11111222,11144222' 
ADCP,ioos:station:wmo:42887:1,2011-01-01T14:20:00Z,28.1910,-88.4960,48.2,9.7,196.0,99.0,'11111222,11111222,11144222' 
ADCP,ioos:station:wmo:42887:1,2011-01-01T14:40:00Z,28.1910,-88.4960,48.2,8.2,201.0,99.0,'11111222,11111222,11144222' 
ADCP,ioos:station:wmo:42887:1,2011-01-01T15:00:00Z,28.1910,-88.4960,48.2,9.7,198.0,99.0,'11111222,11111222,11144222' 
ADCP,ioos:station:wmo:42887:1,2011-01-01T15:20:00Z,28.1910,-88.4960,48.2,10.0,201.0,99.0,'11111222,11111222,11144222' 
ADCP,ioos:station:wmo:42887:1,2011-01-01T15:40:00Z,28.1910,-88.4960,48.2,9.6,207.0,99.0,'11111222,11111222,11144222' 
ADCP,ioos:station:wmo:42887:1,2011-01-01T16:00:00Z,28.1910,-88.4960,48.2,9.9,211.0,99.0,'11111222,11111222,11144222' 
ADCP,ioos:station:wmo:42887:1,2011-01-01T16:20:00Z,28.1910,-88.4960,48.2,11.0,212.0,99.0,'11111222,11111222,11144222' 
ADCP,ioos:station:wmo:42887:1,2011-01-01T16:40:00Z,28.1910,-88.4960,48.2,11.9,213.0,99.0,'11111222,11111222,11144222' 
ADCP,ioos:station:wmo:42887:1,2011-01-01T17:00:00Z,28.1910,-88.4960,48.2,12.4,216.0,99.0,'11111222,11111222,11144222' 
ADCP,ioos:station:wmo:42887:1,2011-01-01T17:20:00Z,28.1910,-88.4960,48.2,10.8,218.0,99.0,'11111222,11111222,11144222' 
ADCP,ioos:station:wmo:42887:1,2011-01-01T17:40:00Z,28.1910,-88.4960,48.2,11.1,220.0,99.0,'11111222,11111222,11144222' 
ADCP,ioos:station:wmo:42887:1,2011-01-01T18:00:00Z,28.1910,-88.4960,48.2,11.3,216.0,99.0,'11111222,11111222,11144222' 
ADCP,ioos:station:wmo:42887:1,2011-01-01T18:20:00Z,28.1910,-88.4960,48.2,11.4,221.0,99.0,'11111222,11111222,11144222' 
ADCP,ioos:station:wmo:42887:1,2011-01-01T18:40:00Z,28.1910,-88.4960,48.2,10.7,220.0,99.0,'11111222,11111222,11144222' 
ADCP,ioos:station:wmo:42887:1,2011-01-01T19:00:00Z,28.1910,-88.4960,48.2,9.6,220.0,99.0,'11111222,11111222,11144222' 
ADCP,ioos:station:wmo:42887:1,2011-01-01T19:20:00Z,28.1910,-88.4960,48.2,9.5,219.0,99.0,'11111222,11111222,11144222' 
ADCP,ioos:station:wmo:42887:1,2011-01-01T19:40:00Z,28.1910,-88.4960,48.2,9.5,220.0,99.0,'11111222,11111222,11144222' 
ADCP,ioos:station:wmo:42887:1,2011-01-01T20:00:00Z,28.1910,-88.4960,48.2,10.2,224.0,99.0,'11111222,11111222,11144222' 
ADCP,ioos:station:wmo:42887:1,2011-01-01T20:20:00Z,28.1910,-88.4960,48.2,9.0,233.0,99.0,'11111222,11111222,11144222' 
ADCP,ioos:station:wmo:42887:1,2011-01-01T20:40:00Z,28.1910,-88.4960,48.2,8.6,232.0,99.0,'11111222,11111222,11144222' 
ADCP,ioos:station:wmo:42887:1,2011-01-01T21:00:00Z,28.1910,-88.4960,48.2,7.3,228.0,99.0,'11111222,11111222,11144222' 
ADCP,ioos:station:wmo:42887:1,2011-01-01T21:20:00Z,28.1910,-88.4960,48.2,6.1,222.0,99.0,'11111222,11111222,11144222' 
ADCP,ioos:station:wmo:42887:1,2011-01-01T21:40:00Z,28.1910,-88.4960,48.2,7.1,226.0,99.0,'11111222,11111222,11144222' 
ADCP,ioos:station:wmo:42887:1,2011-01-01T22:00:00Z,28.1910,-88.4960,48.2,6.7,218.0,99.0,'11111222,11111222,11144222' 
ADCP,ioos:station:wmo:42887:1,2011-01-01T22:20:00Z,28.1910,-88.4960,48.2,6.8,221.0,99.0,'11111222,11111222,11144222' 
ADCP,ioos:station:wmo:42887:1,2011-01-01T22:40:00Z,28.1910,-88.4960,48.2,7.1,223.0,99.0,'11111222,11111222,11144222' 
ADCP,ioos:station:wmo:42887:1,2011-01-01T23:00:00Z,28.1910,-88.4960,48.2,7.1,223.0,99.0,'11111222,11111222,11144222' 
ADCP,ioos:station:wmo:42887:1,2011-01-01T23:20:00Z,28.1910,-88.4960,48.2,7.1,229.0,99.0,'11111222,11111222,11144222' 
ADCP,ioos:station:wmo:42887:1,2011-01-01T23:40:00Z,28.1910,-88.4960,48.2,6.5,230.0,99.0,'11111222,11111222,11144222' 
ADCP,ioos:station:wmo:42887:1,2011-01-02T00:00:00Z,28.1910,-88.4960,48.2,6.4,225.0,99.0,'11111222,11111222,11144222' 
ADCP,ioos:station:wmo:42887:1,2011-01-02T00:20:00Z,28.1910,-88.4960,48.2,5.7,347.0,99.0,'11111222,11111222,11144222' 
ADCP,ioos:station:wmo:42887:1,2011-01-02T00:40:00Z,28.1910,-88.4960,48.2,7.2,9.0,99.0,'11111222,11111222,11144222' 
ADCP,ioos:station:wmo:42887:1,2011-01-02T01:00:00Z,28.1910,-88.4960,48.2,7.1,34.0,99.0,'11111222,11111222,11144222' 
ADCP,ioos:station:wmo:42887:1,2011-01-02T01:20:00Z,28.1910,-88.4960,48.2,5.6,36.0,99.0,'11111222,11111222,11144222' 
ADCP,ioos:station:wmo:42887:1,2011-01-02T01:40:00Z,28.1910,-88.4960,48.2,7.3,22.0,99.0,'11111222,11111222,11144222' 
ADCP,ioos:station:wmo:42887:1,2011-01-02T02:00:00Z,28.1910,-88.4960,48.2,8.9,51.0,99.0,'11111222,11111222,11144222' 
ADCP,ioos:station:wmo:42887:1,2011-01-02T02:20:00Z,28.1910,-88.4960,48.2,7.9,104.0,99.0,'11111222,11111222,11144222' 
ADCP,ioos:station:wmo:42887:1,2011-01-02T02:40:00Z,28.1910,-88.4960,48.2,4.9,97.0,99.0,'11111222,11111222,11144222' 
ADCP,ioos:station:wmo:42887:1,2011-01-02T03:00:00Z,28.1910,-88.4960,48.2,6.5,94.0,99.0,'11111222,11111222,11144222' 
ADCP,ioos:station:wmo:42887:1,2011-01-02T03:20:00Z,28.1910,-88.4960,48.2,5.0,48.0,99.0,'11111222,11111222,11144222' 
ADCP,ioos:station:wmo:42887:1,2011-01-02T03:40:00Z,28.1910,-88.4960,48.2,4.5,37.0,99.0,'11111222,11111222,11144222' 
ADCP,ioos:station:wmo:42887:1,2011-01-02T04:00:00Z,28.1910,-88.4960,48.2,4.3,47.0,99.0,'11111222,11111222,11144222' 
ADCP,ioos:station:wmo:42887:1,2011-01-02T04:20:00Z,28.1910,-88.4960,48.2,5.7,25.0,99.0,'11111222,11111222,11144222' 
ADCP,ioos:station:wmo:42887:1,2011-01-02T04:40:00Z,28.1910,-88.4960,48.2,5.0,25.0,99.0,'11111222,11111222,11144222' 
ADCP,ioos:station:wmo:42887:1,2011-01-02T05:00:00Z,28.1910,-88.4960,48.2,5.3,24.0,99.0,'11111222,11111222,11144222' 
ADCP,ioos:station:wmo:42887:1,2011-01-02T05:20:00Z,28.1910,-88.4960,48.2,6.9,22.0,99.0,'11111222,11111222,11144222' 
ADCP,ioos:station:wmo:42887:1,2011-01-02T05:40:00Z,28.1910,-88.4960,48.2,5.6,27.0,99.0,'11111222,11111222,11144222' 
ADCP,ioos:station:wmo:42887:1,2011-01-02T06:00:00Z,28.1910,-88.4960,48.2,5.7,21.0,99.0,'11111222,11111222,11144222' 
ADCP,ioos:station:wmo:42887:1,2011-01-02T06:20:00Z,28.1910,-88.4960,48.2,5.8,29.0,99.0,'11111222,11111222,11144222' 
ADCP,ioos:station:wmo:42887:1,2011-01-02T06:40:00Z,28.1910,-88.4960,48.2,5.6,25.0,99.0,'11111222,11111222,11144222' 
ADCP,ioos:station:wmo:42887:1,2011-01-02T07:00:00Z,28.1910,-88.4960,48.2,6.9,25.0,99.0,'11111222,11111222,11144222' 
ADCP,ioos:station:wmo:42887:1,2011-01-02T07:20:00Z,28.1910,-88.4960,48.2,6.1,25.0,99.0,'11111222,11111222,11144222' 
ADCP,ioos:station:wmo:42887:1,2011-01-02T07:40:00Z,28.1910,-88.4960,48.2,5.6,29.0,99.0,'11111222,11111222,11144222' 
ADCP,ioos:station:wmo:42887:1,2011-01-02T08:00:00Z,28.1910,-88.4960,48.2,8.5,19.0,99.0,'11111222,11111222,11144222' 
ADCP,ioos:station:wmo:42887:1,2011-01-02T08:20:00Z,28.1910,-88.4960,48.2,7.4,21.0,99.0,'11111222,11111222,11144222' 
ADCP,ioos:station:wmo:42887:1,2011-01-02T08:40:00Z,28.1910,-88.4960,48.2,9.2,11.0,99.0,'11111222,11111222,11144222' 
ADCP,ioos:station:wmo:42887:1,2011-01-02T09:00:00Z,28.1910,-88.4960,48.2,10.0,17.0,99.0,'11111222,11111222,11144222' 
ADCP,ioos:station:wmo:42887:1,2011-01-02T09:20:00Z,28.1910,-88.4960,48.2,8.7,20.0,99.0,'11111222,11111222,11144222' 
ADCP,ioos:station:wmo:42887:1,2011-01-02T09:40:00Z,28.1910,-88.4960,48.2,10.2,11.0,99.0,'11111222,11111222,11144222' 
ADCP,ioos:station:wmo:42887:1,2011-01-02T10:00:00Z,28.1910,-88.4960,48.2,9.4,16.0,99.0,'11111222,11111222,11144222' 
ADCP,ioos:station:wmo:42887:1,2011-01-02T10:20:00Z,28.1910,-88.4960,48.2,8.3,20.0,99.0,'11111222,11111222,11144222' 
ADCP,ioos:station:wmo:42887:1,2011-01-02T10:40:00Z,28.1910,-88.4960,48.2,9.8,18.0,99.0,'11111222,11111222,11144222' 
ADCP,ioos:station:wmo:42887:1,2011-01-02T11:00:00Z,28.1910,-88.4960,48.2,7.4,23.0,99.0,'11111222,11111222,11144222' 
ADCP,ioos:station:wmo:42887:1,2011-01-02T11:20:00Z,28.1910,-88.4960,48.2,7.8,22.0,99.0,'11111222,11111222,11144222' 
ADCP,ioos:station:wmo:42887:1,2011-01-02T11:40:00Z,28.1910,-88.4960,48.2,9.6,14.0,99.0,'11111222,11111222,11144222' 
ADCP,ioos:station:wmo:42887:1,2011-01-02T12:00:00Z,28.1910,-88.4960,48.2,10.5,9.0,99.0,'11111222,11111222,11144222' 
ADCP,ioos:station:wmo:42887:1,2011-01-02T12:20:00Z,28.1910,-88.4960,48.2,10.9,20.0,99.0,'11111222,11111222,11144222' 
ADCP,ioos:station:wmo:42887:1,2011-01-02T12:40:00Z,28.1910,-88.4960,48.2,10.2,16.0,99.0,'11111222,11111222,11144222' 
ADCP,ioos:station:wmo:42887:1,2011-01-02T13:00:00Z,28.1910,-88.4960,48.2,7.6,24.0,99.0,'11111222,11111222,11144222' 
ADCP,ioos:station:wmo:42887:1,2011-01-02T13:20:00Z,28.1910,-88.4960,48.2,8.9,23.0,99.0,'11111222,11111222,11144222' 
ADCP,ioos:station:wmo:42887:1,2011-01-02T13:40:00Z,28.1910,-88.4960,48.2,9.3,19.0,99.0,'11111222,11111222,11144222' 
ADCP,ioos:station:wmo:42887:1,2011-01-02T14:00:00Z,28.1910,-88.4960,48.2,10.2,12.0,99.0,'11111222,11111222,11144222' 
ADCP,ioos:station:wmo:42887:1,2011-01-02T14:20:00Z,28.1910,-88.4960,48.2,9.7,16.0,99.0,'11111222,11111222,11144222' 
ADCP,ioos:station:wmo:42887:1,2011-01-02T14:40:00Z,28.1910,-88.4960,48.2,9.4,20.0,99.0,'11111222,11111222,11144222' 
ADCP,ioos:station:wmo:42887:1,2011-01-02T15:00:00Z,28.1910,-88.4960,48.2,9.1,23.0,99.0,'11111222,11111222,11144222' 
ADCP,ioos:station:wmo:42887:1,2011-01-02T15:20:00Z,28.1910,-88.4960,48.2,10.0,20.0,99.0,'11111222,11111222,11144222' 
ADCP,ioos:station:wmo:42887:1,2011-01-02T15:40:00Z,28.1910,-88.4960,48.2,10.3,17.0,99.0,'11111222,11111222,11144222' 
ADCP,ioos:station:wmo:42887:1,2011-01-02T16:00:00Z,28.1910,-88.4960,48.2,11.4,13.0,99.0,'11111222,11111222,11144222' 
ADCP,ioos:station:wmo:42887:1,2011-01-02T16:20:00Z,28.1910,-88.4960,48.2,10.4,20.0,99.0,'11111222,11111222,11144222' 
ADCP,ioos:station:wmo:42887:1,2011-01-02T16:40:00Z,28.1910,-88.4960,48.2,12.7,17.0,99.0,'11111222,11111222,11144222' 
ADCP,ioos:station:wmo:42887:1,2011-01-02T17:00:00Z,28.1910,-88.4960,48.2,11.7,14.0,99.0,'11111222,11111222,11144222' 
ADCP,ioos:station:wmo:42887:1,2011-01-02T17:20:00Z,28.1910,-88.4960,48.2,10.4,14.0,99.0,'11111222,11111222,11144222' 
ADCP,ioos:station:wmo:42887:1,2011-01-02T17:40:00Z,28.1910,-88.4960,48.2,11.0,17.0,99.0,'11111222,11111222,11144222' 
ADCP,ioos:station:wmo:42887:1,2011-01-02T18:00:00Z,28.1910,-88.4960,48.2,12.1,18.0,99.0,'11111222,11111222,11144222' 
ADCP,ioos:station:wmo:42887:1,2011-01-02T18:20:00Z,28.1910,-88.4960,48.2,11.9,15.0,99.0,'11111222,11111222,11144222' 
ADCP,ioos:station:wmo:42887:1,2011-01-02T18:40:00Z,28.1910,-88.4960,48.2,10.5,14.0,99.0,'11111222,11111222,11144222' 
ADCP,ioos:station:wmo:42887:1,2011-01-02T19:00:00Z,28.1910,-88.4960,48.2,10.6,15.0,99.0,'11111222,11111222,11144222' 
ADCP,ioos:station:wmo:42887:1,2011-01-02T19:20:00Z,28.1910,-88.4960,48.2,10.4,15.0,99.0,'11111222,11111222,11144222' 
ADCP,ioos:station:wmo:42887:1,2011-01-02T19:40:00Z,28.1910,-88.4960,48.2,11.1,26.0,99.0,'11111222,11111222,11144222' 
ADCP,ioos:station:wmo:42887:1,2011-01-02T20:00:00Z,28.1910,-88.4960,48.2,10.6,21.0,99.0,'11111222,11111222,11144222' 
ADCP,ioos:station:wmo:42887:1,2011-01-02T20:20:00Z,28.1910,-88.4960,48.2,9.1,11.0,99.0,'11111222,11111222,11144222' 
ADCP,ioos:station:wmo:42887:1,2011-01-02T20:40:00Z,28.1910,-88.4960,48.2,9.4,29.0,99.0,'11111222,11111222,11144222' 
ADCP,ioos:station:wmo:42887:1,2011-01-02T21:00:00Z,28.1910,-88.4960,48.2,8.4,19.0,99.0,'11111222,11111222,11144222' 
ADCP,ioos:station:wmo:42887:1,2011-01-02T21:20:00Z,28.1910,-88.4960,48.2,8.8,25.0,99.0,'11111222,11111222,11144222' 
ADCP,ioos:station:wmo:42887:1,2011-01-02T21:40:00Z,28.1910,-88.4960,48.2,9.4,26.0,99.0,'11111222,11111222,11144222' 
ADCP,ioos:station:wmo:42887:1,2011-01-02T22:00:00Z,28.1910,-88.4960,48.2,9.4,26.0,99.0,'11111222,11111222,11144222' 
ADCP,ioos:station:wmo:42887:1,2011-01-02T22:40:00Z,28.1910,-88.4960,48.2,9.4,26.0,99.0,'11111222,11111222,11144222' 
ADCP,ioos:station:wmo:42887:1,2011-01-02T23:00:00Z,28.1910,-88.4960,48.2,9.4,26.0,99.0,'11111222,11111222,11144222' 
ADCP,ioos:station:wmo:42887:1,2011-01-02T23:20:00Z,28.1910,-88.4960,48.2,9.4,26.0,99.0,'11111222,11111222,11144222' 
ADCP,ioos:station:wmo:42887:1,2011-01-02T23:40:00Z,28.1910,-88.4960,48.2,9.4,26.0,99.0,'11111222,11111222,11144222' 
ADCP,ioos:station:wmo:42887:1,2011-01-03T00:00:00Z,28.1910,-88.4960,48.2,9.4,26.0,99.0,'11111222,11111222,11144222' 
ADCP,ioos:station:wmo:42887:1,2011-01-03T00:20:00Z,28.1910,-88.4960,48.2,9.4,26.0,99.0,'11111222,11111222,11144222' 
ADCP,ioos:station:wmo:42887:1,2011-01-03T00:40:00Z,28.1910,-88.4960,48.2,9.4,26.0,99.0,'11111222,11111222,11144222' 
ADCP,ioos:station:wmo:42887:1,2011-01-03T01:00:00Z,28.1910,-88.4960,48.2,9.4,26.0,99.0,'11111222,11111222,11144222' 
ADCP,ioos:station:wmo:42887:1,2011-01-03T01:20:00Z,28.1910,-88.4960,48.2,9.4,26.0,99.0,'11111222,11111222,11144222' 
ADCP,ioos:station:wmo:42887:1,2011-01-03T01:40:00Z,28.1910,-88.4960,48.2,9.4,26.0,99.0,'11111222,11111222,11144222' 
ADCP,ioos:station:wmo:42887:1,2011-01-03T02:00:00Z,28.1910,-88.4960,48.2,9.4,26.0,99.0,'11111222,11111222,11144222' 
ADCP,ioos:station:wmo:42887:1,2011-01-03T02:20:00Z,28.1910,-88.4960,48.2,9.4,26.0,99.0,'11111222,11111222,11144222' 
ADCP,ioos:station:wmo:42887:1,2011-01-03T02:40:00Z,28.1910,-88.4960,48.2,9.4,26.0,99.0,'11111222,11111222,11144222' 
ADCP,ioos:station:wmo:42887:1,2011-01-03T03:00:00Z,28.1910,-88.4960,48.2,9.4,26.0,99.0,'11111222,11111222,11144222' 
ADCP,ioos:station:wmo:42887:1,2011-01-03T03:20:00Z,28.1910,-88.4960,48.2,9.4,26.0,99.0,'11111222,11111222,11144222' 
ADCP,ioos:station:wmo:42887:1,2011-01-03T04:00:00Z,28.1910,-88.4960,48.2,9.4,26.0,99.0,'11111222,11111222,11144222' 
ADCP,ioos:station:wmo:42887:1,2011-01-03T04:20:00Z,28.1910,-88.4960,48.2,9.4,26.0,99.0,'11111222,11111222,11144222' 
ADCP,ioos:station:wmo:42887:1,2011-01-03T04:40:00Z,28.1910,-88.4960,48.2,9.4,26.0,99.0,'11111222,11111222,11144222' 
ADCP,ioos:station:wmo:42887:1,2011-01-03T05:00:00Z,28.1910,-88.4960,48.2,9.4,26.0,99.0,'11111222,11111222,11144222' 
ADCP,ioos:station:wmo:42887:1,2011-01-03T05:20:00Z,28.1910,-88.4960,48.2,9.4,26.0,99.0,'11111222,11111222,11144222' 
ADCP,ioos:station:wmo:42887:1,2011-01-03T05:40:00Z,28.1910,-88.4960,48.2,9.4,26.0,99.0,'11111222,11111222,11144222' 
ADCP,ioos:station:wmo:42887:1,2011-01-03T06:00:00Z,28.1910,-88.4960,48.2,9.4,26.0,99.0,'11111222,11111222,11144222' 
ADCP,ioos:station:wmo:42887:1,2011-01-03T06:20:00Z,28.1910,-88.4960,48.2,9.4,26.0,99.0,'11111222,11111222,11144222' 
ADCP,ioos:station:wmo:42887:1,2011-01-03T06:40:00Z,28.1910,-88.4960,48.2,9.4,26.0,99.0,'11111222,11111222,11144222' 
ADCP,ioos:station:wmo:42887:1,2011-01-03T07:00:00Z,28.1910,-88.4960,48.2,9.4,26.0,99.0,'11111222,11111222,11144222' 
ADCP,ioos:station:wmo:42887:1,2011-01-03T07:20:00Z,28.1910,-88.4960,48.2,9.4,26.0,99.0,'11111222,11111222,11144222' 
ADCP,ioos:station:wmo:42887:1,2011-01-03T07:40:00Z,28.1910,-88.4960,48.2,9.4,26.0,99.0,'11111222,11111222,11144222' 
ADCP,ioos:station:wmo:42887:1,2011-01-03T08:00:00Z,28.1910,-88.4960,48.2,9.4,26.0,99.0,'11111222,11111222,11144222' 
ADCP,ioos:station:wmo:42887:1,2011-01-03T08:20:00Z,28.1910,-88.4960,48.2,9.4,26.0,99.0,'11111222,11111222,11144222' 
ADCP,ioos:station:wmo:42887:1,2011-01-03T08:40:00Z,28.1910,-88.4960,48.2,9.4,26.0,99.0,'11111222,11111222,11144222' 
ADCP,ioos:station:wmo:42887:1,2011-01-03T09:00:00Z,28.1910,-88.4960,48.2,9.4,26.0,99.0,'11111222,11111222,11144222' 
ADCP,ioos:station:wmo:42887:1,2011-01-03T09:20:00Z,28.1910,-88.4960,48.2,9.4,26.0,99.0,'11111222,11111222,11144222' 
ADCP,ioos:station:wmo:42887:1,2011-01-03T09:40:00Z,28.1910,-88.4960,48.2,9.4,26.0,99.0,'11111222,11111222,11144222' 
ADCP,ioos:station:wmo:42887:1,2011-01-03T10:00:00Z,28.1910,-88.4960,48.2,9.4,26.0,99.0,'11111222,11111222,11144222' 
ADCP,ioos:station:wmo:42887:1,2011-01-03T10:20:00Z,28.1910,-88.4960,48.2,9.4,26.0,99.0,'11111222,11111222,11144222' 
ADCP,ioos:station:wmo:42887:1,2011-01-03T11:00:00Z,28.1910,-88.4960,48.2,9.4,26.0,99.0,'11111222,11111222,11144222' 
ADCP,ioos:station:wmo:42887:1,2011-01-03T11:20:00Z,28.1910,-88.4960,48.2,9.4,26.0,99.0,'11111222,11111222,11144222' 
ADCP,ioos:station:wmo:42887:1,2011-01-03T11:40:00Z,28.1910,-88.4960,48.2,9.4,26.0,99.0,'11111222,11111222,11144222' 
ADCP,ioos:station:wmo:42887:1,2011-01-03T12:00:00Z,28.1910,-88.4960,48.2,9.4,26.0,99.0,'11111222,11111222,11144222' 
ADCP,ioos:station:wmo:42887:1,2011-01-03T12:20:00Z,28.1910,-88.4960,48.2,6.5,75.0,99.0,'11111222,11111222,11144222' 
ADCP,ioos:station:wmo:42887:1,2011-01-03T12:40:00Z,28.1910,-88.4960,48.2,6.0,74.0,99.0,'11111222,11111222,11144222' 
ADCP,ioos:station:wmo:42887:1,2011-01-03T13:00:00Z,28.1910,-88.4960,48.2,4.1,82.0,99.0,'11111222,11111222,11144222' 
ADCP,ioos:station:wmo:42887:1,2011-01-03T13:20:00Z,28.1910,-88.4960,48.2,4.4,99.0,99.0,'11111222,11111222,11144222' 
ADCP,ioos:station:wmo:42887:1,2011-01-03T13:40:00Z,28.1910,-88.4960,48.2,5.9,78.0,99.0,'11111222,11111222,11144222' 
ADCP,ioos:station:wmo:42887:1,2011-01-03T14:00:00Z,28.1910,-88.4960,48.2,5.6,73.0,99.0,'11111222,11111222,11144222' 
ADCP,ioos:station:wmo:42887:1,2011-01-03T14:20:00Z,28.1910,-88.4960,48.2,4.3,86.0,99.0,'11111222,11111222,11144222' 
ADCP,ioos:station:wmo:42887:1,2011-01-03T14:40:00Z,28.1910,-88.4960,48.2,6.0,84.0,99.0,'11111222,11111222,11144222' 
ADCP,ioos:station:wmo:42887:1,2011-01-03T15:00:00Z,28.1910,-88.4960,48.2,6.0,87.0,99.0,'11111222,11111222,11144222' 
ADCP,ioos:station:wmo:42887:1,2011-01-03T15:20:00Z,28.1910,-88.4960,48.2,5.0,86.0,99.0,'11111222,11111222,11144222' 
ADCP,ioos:station:wmo:42887:1,2011-01-03T15:40:00Z,28.1910,-88.4960,48.2,6.0,99.0,99.0,'11111222,11111222,11144222' 
ADCP,ioos:station:wmo:42887:1,2011-01-03T16:00:00Z,28.1910,-88.4960,48.2,5.5,95.0,99.0,'11111222,11111222,11144222' 
ADCP,ioos:station:wmo:42887:1,2011-01-03T16:40:00Z,28.1910,-88.4960,48.2,4.9,79.0,99.0,'11111222,11111222,11144222' 
ADCP,ioos:station:wmo:42887:1,2011-01-03T17:00:00Z,28.1910,-88.4960,48.2,3.5,83.0,99.0,'11111222,11111222,11144222' 
ADCP,ioos:station:wmo:42887:1,2011-01-03T17:20:00Z,28.1910,-88.4960,48.2,4.3,92.0,99.0,'11111222,11111222,11144222' 
ADCP,ioos:station:wmo:42887:1,2011-01-03T17:40:00Z,28.1910,-88.4960,48.2,4.0,86.0,99.0,'11111222,11111222,11144222' 
ADCP,ioos:station:wmo:42887:1,2011-01-03T18:00:00Z,28.1910,-88.4960,48.2,4.5,109.0,99.0,'11111222,11111222,11144222' 
ADCP,ioos:station:wmo:42887:1,2011-01-03T18:20:00Z,28.1910,-88.4960,48.2,4.1,110.0,99.0,'11111222,11111222,11144222' 
ADCP,ioos:station:wmo:42887:1,2011-01-03T18:40:00Z,28.1910,-88.4960,48.2,5.2,91.0,99.0,'11111222,11111222,11144222' 
ADCP,ioos:station:wmo:42887:1,2011-01-03T19:00:00Z,28.1910,-88.4960,48.2,4.8,106.0,99.0,'11111222,11111222,11144222' 
ADCP,ioos:station:wmo:42887:1,2011-01-03T19:20:00Z,28.1910,-88.4960,48.2,5.2,107.0,99.0,'11111222,11111222,11144222' 
ADCP,ioos:station:wmo:42887:1,2011-01-03T19:40:00Z,28.1910,-88.4960,48.2,4.4,107.0,99.0,'11111222,11111222,11144222' 
ADCP,ioos:station:wmo:42887:1,2011-01-03T20:00:00Z,28.1910,-88.4960,48.2,5.2,118.0,99.0,'11111222,11111222,11144222' 
ADCP,ioos:station:wmo:42887:1,2011-01-03T20:20:00Z,28.1910,-88.4960,48.2,5.3,103.0,99.0,'11111222,11111222,11144222' 